User: anonymous   Login
Location: Unspecified
(0.0000°N, 0.0000°E)
Time: 01:01:22
(UTC+00:00)
Language:

Explorer 31 - Orbit

View from above orbital plane
View from above orbital plane
View from above satellite
View from above satellite

Ground track
Ground track

The orbit data is extracted from the following two-line orbital elements,

1  1806U 65098B   18265.10940472 +.00000160 +00000-0 +57695-4 0  9995
2  1806 079.7960 147.3524 1437837 257.7285 085.9612 12.05503581307663
Epoch (UTC): 22 September 2018 02:37:32
Eccentricity: 0.1437837
inclination: 79.7960°
perigee height: 501 km
apogee height: 2811 km
right ascension of ascending node: 147.3524°
argument of perigee: 257.7285°
revolutions per day: 12.05503581
mean anomaly at epoch: 85.9612°
orbit number at epoch: 30766

The dashed part of the orbit path shows where the satellite is in the earth's shadow,  

DLR